Location: Altleiningen
(49.5078°N, 8.0741°E)
Time: 05:30:11
(UTC+00:00)

Cosmos 2237 Rocket - Pass Details

Date: 14 June 2025
Orbit: 833 x 850 km, 71.0° (Epoch: 12 July)

Event Time Altitude Azimuth Distance (km) Brightness Sun altitude
Rises 20:34:49 0° 328° (NNW) 3,411 7.7 -7.6°
Reaches altitude 10° 20:37:19 10° 324° (NW) 2,475 6.4 -7.9°
Maximum altitude 20:42:50 54° 249° (WSW) 1,022 2.8 -8.4°
Drops below altitude 10° 20:48:20 10° 173° (S) 2,467 4.1 -9.0°
Enters shadow 20:48:56 - 172° (S) 2,691 4.3 -9.0°
